Regional Weather Roundup
Issued by NWS Grand Forks, ND

Home | Current Version | Previous Version | Text Only | Print | Product List | Glossary Off
Versions: 1 2 3 4 5 6 7 8 9 10 11 12 13 14 15 16 17 18 19 20 21 22 23 24 25 26 27 28 29 30 31 32 33 34 35 36 37 38 39 40 41 42 43 44 45 46 47 48 49 50

000
ASUS43 KFGF 271410
RWRFGF
PRAIRIE TO PINES  WEATHER ROUNDUP
NATIONAL WEATHER SERVICE EASTERN NORTH DAKOTA/GRAND FORKS ND
900 AM CDT SAT AUG 27 2016

 **SATELLITE DATA USED TO AUGMENT SKY COVER AT AUTOMATED STATIONS**
 *****  WEATHER ACROSS EASTERN NORTH DAKOTA  *****

CITY           SKY/WX    TMP DP  RH WIND       PRES   REMARKS
GRAND FORKS    CLOUDY    60  58  92 SE10      29.95R
GRAND FRKS AFB CLOUDY    60  58  96 S9        29.94S
GRAND FRKS NWS   N/A     57 N/A N/A SE6         N/A
DEVILS LAKE    NOT AVBL
FARGO          CLOUDY    63  59  87 S13       29.97R
WAHPETON ARPT  MOSUNNY   63  57  82 S13       29.99S
$$

 ***** WEATHER ACROSS CENTRAL AND WESTERN NORTH DAKOTA  *****

CITY           SKY/WX    TMP DP  RH WIND       PRES   REMARKS
BISMARCK       SUNNY     58  54  86 SW5       29.94F
MINOT          MOSUNNY   55  52  89 SW6       29.92R
JAMESTOWN      CLOUDY    60  58  92 S5        29.94S
MINOT AFB      MOSUNNY   55  51  86 W2        29.90S
GARRISON         N/A     59  55  87 SW5       29.93R
WILLISTON      SUNNY     54  46  74 CALM      29.93R
DICKINSON      SUNNY     56  48  74 SW7       29.94R
HETTINGER      SUNNY     53  50  89 CALM      29.97F
$$

 *****  OTHER AIRPORT OBSERVATIONS IN OUR AREA  *****

CITY           SKY/WX    TMP DP  RH WIND       PRES   REMARKS
WALHALLA       NOT AVBL
GRAFTON AIRPOR FAIR      59  59 100 S13       29.95S
VALLEY CITY AR CLOUDY    59  59 100 S6        29.97S
CANDO          NOT AVBL
CAVALIER APRT  PTSUNNY   57  55  94 S7        29.94R
GWINNER        FAIR      63  63 100 S8        29.97R
SHEYENNE NWR     N/A     62  59  91 S7        29.95S
ROLLA          FAIR      55  55 100 SW7       29.92S
 ***** THE ABOVE OBSERVATIONS ARE NON NWS ARE NOT QUALITY
       CONTROLLED AND MAY MIS-REPORT RAIN FOR SNOW...
$$

  *****  WEATHER ACROSS NORTHERN MINNESOTA  *****

CITY           SKY/WX    TMP DP  RH WIND       PRES   REMARKS
FLAG ISLAND    CLOUDY    66  59  77 CALM      29.97F HAZE
WARROAD        MOSUNNY   63  57  82 S7        29.99S
ROSEAU         CLOUDY    63  57  82 S10       29.98R
HALLOCK        CLOUDY    59  57  94 S8        29.95R
THF RVR FALLS  RAIN      59  57  94 W8        30.02R FOG
BAUDETTE       CLOUDY    62  57  83 S9        30.00F
WASKISH        CLOUDY    63  57  82 S7        30.02F
CROOKSTON      RAIN      59  57  94 SE8         N/A
GREENBUSH NDAW   N/A     59  57  94 S13         N/A
$$
  *****  WEATHER ACROSS CENTRAL AND WEST MINNESOTA  *****

CITY           SKY/WX    TMP DP  RH WIND       PRES   REMARKS
FOSSTON        CLOUDY    59  57  94 SE6       30.00S
BEMIDJI        CLOUDY    60  57  90 SE7       30.02F
PARK RAPIDS    CLOUDY    62  56  80 SE10      30.03F
ELBOW LAKE     CLOUDY    61  58  91 E10       30.02S
WADENA         CLOUDY    59  57  94 SE8       30.03F
DETROIT LAKES  MOSUNNY   64  59  82 SE13      30.01F
MOORHEAD       CLOUDY    63  59  88 S14       29.98R
FERGUS FALLS   CLOUDY    63  59  88 SE9       30.02S
MORRIS MN      CLOUDY    63  61  94 SE9       30.01F
STAPLES        PTSUNNY   61  57  88 SE5       30.05S
$$
  *****  WEATHER ELSEWHERE ACROSS MINNESOTA  *****

CITY           SKY/WX    TMP DP  RH WIND       PRES   REMARKS
DULUTH         CLOUDY    60  59  96 SE7       30.10S
INTRNTL FALLS  CLOUDY    66  57  72 VRB3      30.04F
ELY            CLOUDY    59  54  82 CALM      30.09F
CLOQUET        CLOUDY    57  55  94 CALM      30.10S
WHEATON        MOSUNNY   64  61  88 SE10      30.01S
BRAINERD       CLOUDY    60  57  89 SE5       30.07S
HIBBING        CLOUDY    56  55  97 CALM      30.09F
ALEXANDRIA     CLOUDY    62  58  86 SE10      30.05F
SAINT CLOUD    CLOUDY    60  60 100 SE5       30.07S
MINNEAPOLIS    CLOUDY    64  59  83 E8        30.07S
$$

  *****  WEATHER ACROSS SOUTH DAKOTA  *****

CITY           SKY/WX    TMP DP  RH WIND       PRES   REMARKS
SIOUX FALLS    CLOUDY    63  62  97 SE6       30.02S
BROOKINGS      PTSUNNY   61  58  90 SE8       30.03R
WATERTOWN      MOSUNNY   62  58  86 S10       30.01S
HURON          CLOUDY    61  61 100 S10       29.99R
SISSETON         N/A     64  60  87 S12       29.98S
ABERDEEN       CLOUDY    61  59  93 S12       29.98R
MITCHELL       CLOUDY    63  61  93 S12       30.02R
PIERRE         SUNNY     60  56  86 W12       29.97R
MOBRIDGE       SUNNY     60  56  86 SW5       29.94S
RAPID CITY     SUNNY     60  53  77 S3        30.00S
$$

  *****  SOME WEATHER IN NEARBY STATES *****

CITY           SKY/WX    TMP DP  RH WIND       PRES   REMARKS
GLASGOW MT     SUNNY     53  45  74 SE10      29.86F
GREAT FALLS MT CLOUDY    64  37  36 SW15      29.84S
CHEYENNE WY    CLOUDY    53  41  63 W6        30.17R
SCOTTSBLUFF NE FOG       54  53  97 SE5       30.08R VSB 1/4
OMAHA NE       CLOUDY    69  66  90 CALM      30.03R FOG
DES MOINES IA  CLOUDY    66  64  93 CALM      30.04R FOG
DAVENPORT IA   PTSUNNY   73  69  87 SW9       30.03F
CHICAGO IL     CLOUDY    71  69  93 SE7       30.06F
EAU CLAIRE WI  CLOUDY    64  57  78 SE6       30.09S
LA CROSSE WI   CLOUDY    65  62  90 SE5       30.07S
$$

  *****  SOME NATIONAL WEATHER *****

CITY           SKY/WX    TMP DP  RH WIND       PRES   REMARKS
LA GUARDIA NY  MOSUNNY   81  63  54 NE9       30.19R
RALEIGH NC     MOSUNNY   86  74  67 CALM      30.13R HX  94
ATLANTA GA     MOSUNNY   80  69  69 SE3       30.13S
NEW ORLEANS LA CLOUDY    85  77  77 NE8       29.98R HX  95
OKLAHOMA CITY  CLOUDY    75  71  87 S10       30.05R
ALBUQUERQUE NM MOSUNNY   64  51  62 CALM      30.21R
SALT LAKE CITY MOSUNNY   67  44  43 SE13      30.07R
LOS ANGELES CA CLOUDY    66  57  72 CALM      29.97R
BOISE ID       CLEAR     58  36  43 E3        29.95R
SEATTLE WA     MOCLDY    60  55  83 SW18      29.83R
$$

*** WEATHER ACROSS MANITOBA...SASKATCHEWAN AND ONTARIO ***
                ***ONTARIO***

CITY           SKY/WX    TMP DP  RH WIND       PRES   REMARKS
GERALDTON      CLOUDY    57  52  82 S10       30.14F
THUNDER BAY    PTSUNNY   59  55  88 E3        30.12F
SIOUX LOOKOUT  PTSUNNY   61  55  82 SE6       30.04S
TORONTO        PTSUNNY   73  59  60 S6        30.22R
BIG TROUT LK   SUNNY     61  55  82 SW6       29.96R
PICKLE LAKE    MOSUNNY   64  55  72 S8        30.02S
DRYDEN         MOSUNNY   64  55  72 S8        30.03F
KENORA         PTSUNNY   64  54  68 S9        29.99F
$$
                *** MANITOBA***

CITY           SKY/WX    TMP DP  RH WIND       PRES   REMARKS
BRANDON        MOSUNNY   55  52  88 W7        29.88S
DAUPHIN        SUNNY     61  55  82 SW7       29.84R
ISLAND LAKE    PTSUNNY   61  55  82 S7        29.87S
PILOT MOUND      N/A     55  54  94 SW7         N/A
THE PAS        CLOUDY    59  55  88 N6        29.81R
THOMPSON       FOG       52  52 100 NE3       29.85S VSB 1/4
WINNIPEG       PTSUNNY   59  52  77 S13       29.91S
LYNN LAKE      SUNNY     54  50  87 MISG      29.84S
CHURCHILL      MOSUNNY   54  48  82 SW8       29.89R
GILLAM         CLOUDY    54  52  94 E3        29.88S
$$
                ***SASKATCHEWAN***

CITY           SKY/WX    TMP DP  RH WIND       PRES   REMARKS
ESTEVAN        MOSUNNY   54  50  87 SW5       29.91R
KINDERSLEY     PTSUNNY   55  46  71 SE12      29.70F
LLOYDMINSTER   CLOUDY    55  50  82 SE10      29.68F
PRINCE ALBERT  FOG       52  52 100 S7        29.82F VSB 1/2
REGINA         MOSUNNY   50  46  87 SE6       29.87S
YORKTON        PTSUNNY   57  54  88 W8        29.85R
N. BATTLEFORD  MOSUNNY   54  52  94 E9        29.76F
LA RONGE       PTSUNNY   55  54  94 S8        29.81S
SASKATOON      PTSUNNY   55  52  88 S8        29.81F
SWIFT CURRENT  SUNNY     54  46  76 S17       29.78F
$$
NOTE: THESE ARE AUTOMATED STATIONS WITH LIMITED QUALITY CONTROL
      "FAIR" INDICATES FEW OR NO CLOUDS BELOW 12,000 FEET WITH NO
      SIGNIFICANT WEATHER AND/OR OBSTRUCTIONS TO VISIBILITY.
      SKY/WX - SKY CONDITION AND SIGNIFICANT WEATHER.
      TMP - AIR TEMPERATURE.    DP   - DEWPOINT TEMPERATURE.
      RH  - RELATIVE HUMIDITY.  PRES - PRESSURE.
      HX  - HEAT INDEX.         WCI  - WIND CHILL INDEX.
$




USA.gov is the U.S. government's official web portal to all federal, state and local government web resources and services.